Time,TemperatureF,DewpointF,PressureIn,WindDirection,WindDirectionDegrees,WindSpeedMPH,WindSpeedGustMPH,Humidity,HourlyPrecipIn,Conditions,Clouds,dailyrainin,SoftwareType,DateUTC
2013-04-21 00:02:00,44.5,31.1,30.17,SE,125,5.0,8.0,59,0.00,,OVC200,0.00,VWS V14.01,2013-04-21 05:02:00,
2013-04-21 00:07:00,44.5,31.1,30.17,SE,125,7.0,8.0,59,0.00,,OVC200,0.00,VWS V14.01,2013-04-21 05:07:00,
2013-04-21 00:12:00,44.6,31.2,30.17,SE,127,5.0,8.0,59,0.00,,OVC200,0.00,VWS V14.01,2013-04-21 05:12:00,
2013-04-21 00:17:00,44.5,30.7,30.18,SE,126,4.0,8.0,58,0.00,,OVC200,0.00,VWS V14.01,2013-04-21 05:17:00,
2013-04-21 00:22:00,44.6,31.2,30.18,ESE,118,5.0,7.0,59,0.00,,OVC200,0.00,VWS V14.01,2013-04-21 05:22:00,
2013-04-21 00:27:00,44.6,30.8,30.18,SE,143,7.0,7.0,58,0.00,,OVC200,0.00,VWS V14.01,2013-04-21 05:27:00,
2013-04-21 00:32:00,44.7,30.9,30.18,SSE,161,4.0,6.0,58,0.00,,OVC200,0.00,VWS V14.01,2013-04-21 05:32:00,
2013-04-21 00:37:00,44.7,30.9,30.19,SSE,149,6.0,8.0,58,0.00,,OVC200,0.00,VWS V14.01,2013-04-21 05:37:00,
2013-04-21 00:42:00,44.8,30.5,30.18,SE,142,7.0,10.0,57,0.00,,OVC200,0.00,VWS V14.01,2013-04-21 05:42:00,
2013-04-21 00:47:00,44.8,30.9,30.18,SE,139,4.0,6.0,58,0.00,,OVC200,0.00,VWS V14.01,2013-04-21 05:47:00,
2013-04-21 00:52:00,44.6,30.8,30.18,SE,134,7.0,8.0,58,0.00,,OVC200,0.00,VWS V14.01,2013-04-21 05:52:00,
2013-04-21 00:57:00,44.5,31.1,30.18,ESE,119,3.0,7.0,59,0.00,,OVC200,0.00,VWS V14.01,2013-04-21 05:57:00,
2013-04-21 01:02:00,44.4,31.0,30.18,ESE,118,7.0,9.0,59,0.00,,OVC095,0.00,VWS V14.01,2013-04-21 06:02:00,
2013-04-21 01:07:00,44.4,31.4,30.17,ESE,119,2.0,5.0,60,0.00,,OVC095,0.00,VWS V14.01,2013-04-21 06:07:00,
2013-04-21 01:12:00,44.4,31.0,30.17,SE,128,3.0,7.0,59,0.00,,OVC095,0.00,VWS V14.01,2013-04-21 06:12:00,
2013-04-21 01:17:00,44.4,31.0,30.17,East,90,5.0,7.0,59,0.00,,OVC095,0.00,VWS V14.01,2013-04-21 06:17:00,
2013-04-21 01:22:00,44.4,31.0,30.16,SSE,156,4.0,8.0,59,0.00,,OVC095,0.00,VWS V14.01,2013-04-21 06:22:00,
2013-04-21 01:27:00,44.5,31.1,30.16,East,90,6.0,8.0,59,0.00,,OVC095,0.00,VWS V14.01,2013-04-21 06:27:00,
2013-04-21 01:32:00,44.5,31.1,30.17,East,101,5.0,8.0,59,0.00,,OVC095,0.00,VWS V14.01,2013-04-21 06:32:00,
2013-04-21 01:37:00,44.4,31.4,30.16,ESE,119,4.0,8.0,60,0.00,,OVC095,0.00,VWS V14.01,2013-04-21 06:37:00,
2013-04-21 01:42:00,44.4,31.4,30.16,ESE,120,5.0,7.0,60,0.00,,OVC095,0.00,VWS V14.01,2013-04-21 06:42:00,
2013-04-21 01:48:00,44.4,31.8,30.16,East,99,7.0,9.0,61,0.00,,OVC095,0.00,VWS V14.01,2013-04-21 06:48:00,
2013-04-21 01:53:00,44.3,31.7,30.17,SE,136,5.0,7.0,61,0.00,,OVC095,0.00,VWS V14.01,2013-04-21 06:53:00,
2013-04-21 01:58:00,44.3,31.7,30.17,SE,137,3.0,7.0,61,0.00,,OVC095,0.00,VWS V14.01,2013-04-21 06:58:00,
2013-04-21 02:03:00,44.5,31.9,30.17,SE,137,5.0,7.0,61,0.00,,OVC085,0.00,VWS V14.01,2013-04-21 07:03:00,
2013-04-21 02:08:00,44.7,31.7,30.16,SE,139,9.0,11.0,60,0.00,,OVC085,0.00,VWS V14.01,2013-04-21 07:08:00,
2013-04-21 02:13:00,44.8,31.8,30.16,SE,129,5.0,9.0,60,0.00,,OVC085,0.00,VWS V14.01,2013-04-21 07:13:00,
2013-04-21 02:18:00,44.9,31.9,30.16,SE,139,13.0,13.0,60,0.00,,OVC085,0.00,VWS V14.01,2013-04-21 07:18:00,
2013-04-21 02:23:00,45.0,32.0,30.16,SE,131,5.0,8.0,60,0.00,,OVC085,0.00,VWS V14.01,2013-04-21 07:23:00,
2013-04-21 02:28:00,44.9,31.9,30.16,SE,125,6.0,13.0,60,0.00,,OVC085,0.00,VWS V14.01,2013-04-21 07:28:00,
2013-04-21 02:33:00,44.7,32.1,30.16,SE,138,5.0,10.0,61,0.00,,OVC085,0.00,VWS V14.01,2013-04-21 07:33:00,
2013-04-21 02:38:00,44.6,32.0,30.16,SSE,149,10.0,11.0,61,0.00,,OVC085,0.00,VWS V14.01,2013-04-21 07:38:00,
2013-04-21 02:43:00,44.6,32.0,30.15,SSE,163,8.0,10.0,61,0.00,,OVC085,0.00,VWS V14.01,2013-04-21 07:43:00,
2013-04-21 02:48:00,44.5,32.3,30.15,SE,137,9.0,12.0,62,0.00,,OVC085,0.00,VWS V14.01,2013-04-21 07:48:00,
2013-04-21 02:53:00,44.4,32.2,30.14,SSE,150,9.0,13.0,62,0.00,,OVC085,0.00,VWS V14.01,2013-04-21 07:53:00,
2013-04-21 02:58:00,44.3,32.5,30.14,SE,136,10.0,13.0,63,0.00,,OVC085,0.00,VWS V14.01,2013-04-21 07:58:00,
2013-04-21 03:03:00,44.4,32.2,30.14,SE,129,9.0,13.0,62,0.00,,OVC095,0.00,VWS V14.01,2013-04-21 08:03:00,
2013-04-21 03:08:00,44.4,32.2,30.14,SE,124,6.0,13.0,62,0.00,,OVC095,0.00,VWS V14.01,2013-04-21 08:08:00,
2013-04-21 03:13:00,44.3,32.5,30.14,ESE,122,8.0,12.0,63,0.00,,OVC095,0.00,VWS V14.01,2013-04-21 08:13:00,
2013-04-21 03:18:00,44.3,32.5,30.14,SE,129,9.0,13.0,63,0.00,,OVC095,0.00,VWS V14.01,2013-04-21 08:18:00,
2013-04-21 03:23:00,44.3,32.5,30.14,SSE,149,8.0,13.0,63,0.00,,OVC095,0.00,VWS V14.01,2013-04-21 08:23:00,
2013-04-21 03:28:00,44.3,32.5,30.14,SE,145,11.0,13.0,63,0.00,,OVC095,0.00,VWS V14.01,2013-04-21 08:28:00,
2013-04-21 03:33:00,44.4,32.6,30.14,SE,138,12.0,15.0,63,0.00,,OVC095,0.00,VWS V14.01,2013-04-21 08:33:00,
2013-04-21 03:38:00,44.3,32.5,30.14,SE,131,9.0,14.0,63,0.00,,OVC095,0.00,VWS V14.01,2013-04-21 08:38:00,
2013-04-21 03:43:00,44.3,32.5,30.14,SE,144,12.0,15.0,63,0.00,,OVC095,0.00,VWS V14.01,2013-04-21 08:43:00,
2013-04-21 03:48:00,44.3,32.5,30.14,SSE,155,10.0,15.0,63,0.00,,OVC095,0.00,VWS V14.01,2013-04-21 08:48:00,
2013-04-21 03:53:00,44.3,32.9,30.13,SE,140,10.0,19.0,64,0.00,,OVC095,0.00,VWS V14.01,2013-04-21 08:53:00,
2013-04-21 03:58:00,44.3,32.5,30.13,SE,139,10.0,16.0,63,0.00,,OVC095,0.00,VWS V14.01,2013-04-21 08:58:00,
2013-04-21 04:03:00,44.4,33.0,30.13,SE,145,11.0,16.0,64,0.00,,OVC100,0.00,VWS V14.01,2013-04-21 09:03:00,
2013-04-21 04:08:00,44.4,33.0,30.13,SE,144,8.0,16.0,64,0.00,,OVC100,0.00,VWS V14.01,2013-04-21 09:08:00,
2013-04-21 04:13:00,44.3,32.9,30.13,SSE,149,11.0,13.0,64,0.00,,OVC100,0.00,VWS V14.01,2013-04-21 09:13:00,
2013-04-21 04:18:00,44.2,32.8,30.14,SSE,158,10.0,12.0,64,0.00,,OVC100,0.00,VWS V14.01,2013-04-21 09:18:00,
2013-04-21 04:23:00,44.2,32.8,30.13,SE,141,7.0,11.0,64,0.00,,OVC100,0.00,VWS V14.01,2013-04-21 09:23:00,
2013-04-21 04:28:00,44.2,32.8,30.13,SE,133,6.0,13.0,64,0.00,,OVC100,0.00,VWS V14.01,2013-04-21 09:28:00,
2013-04-21 04:33:00,44.1,33.1,30.13,SSE,149,9.0,12.0,65,0.00,,OVC100,0.00,VWS V14.01,2013-04-21 09:33:00,
2013-04-21 04:38:00,44.2,33.2,30.13,SE,133,8.0,16.0,65,0.00,,OVC100,0.00,VWS V14.01,2013-04-21 09:38:00,
2013-04-21 04:43:00,44.2,33.2,30.13,SSE,150,7.0,13.0,65,0.00,,OVC100,0.00,VWS V14.01,2013-04-21 09:43:00,
2013-04-21 04:48:00,44.1,33.1,30.13,SE,145,8.0,13.0,65,0.00,,OVC100,0.00,VWS V14.01,2013-04-21 09:48:00,
2013-04-21 04:53:00,44.0,33.0,30.13,SE,131,10.0,13.0,65,0.00,,OVC100,0.00,VWS V14.01,2013-04-21 09:53:00,
2013-04-21 04:58:00,44.1,33.1,30.13,SSE,162,8.0,16.0,65,0.00,,OVC100,0.00,VWS V14.01,2013-04-21 09:58:00,
2013-04-21 05:03:00,44.1,33.1,30.13,SE,136,13.0,14.0,65,0.00,,OVC095,0.00,VWS V14.01,2013-04-21 10:03:00,
2013-04-21 05:08:00,44.1,33.1,30.13,SSE,164,10.0,11.0,65,0.00,,OVC095,0.00,VWS V14.01,2013-04-21 10:08:00,
2013-04-21 05:13:00,44.0,33.0,30.13,SSE,149,7.0,13.0,65,0.00,,OVC095,0.00,VWS V14.01,2013-04-21 10:13:00,
2013-04-21 05:19:00,44.0,33.0,30.13,SE,141,12.0,13.0,65,0.00,,OVC095,0.00,VWS V14.01,2013-04-21 10:19:00,
2013-04-21 05:24:00,43.8,32.8,30.13,SE,133,11.0,12.0,65,0.00,,OVC095,0.00,VWS V14.01,2013-04-21 10:24:00,
2013-04-21 05:28:00,43.6,33.0,30.13,SSE,147,9.0,12.0,66,0.00,,OVC095,0.00,VWS V14.01,2013-04-21 10:28:00,
2013-04-21 05:33:00,43.4,32.8,30.13,SE,137,12.0,14.0,66,0.00,,OVC095,0.00,VWS V14.01,2013-04-21 10:33:00,
2013-04-21 05:38:00,43.4,33.2,30.13,South,171,11.0,11.0,67,0.00,,OVC095,0.00,VWS V14.01,2013-04-21 10:38:00,
2013-04-21 05:43:00,43.3,33.1,30.13,SE,143,5.0,12.0,67,0.00,,OVC095,0.00,VWS V14.01,2013-04-21 10:43:00,
2013-04-21 05:49:00,43.2,33.4,30.13,SSE,158,8.0,10.0,68,0.00,,OVC095,0.00,VWS V14.01,2013-04-21 10:49:00,
2013-04-21 05:54:00,43.3,33.5,30.13,SSE,153,5.0,12.0,68,0.00,,OVC095,0.00,VWS V14.01,2013-04-21 10:54:00,
2013-04-21 05:59:00,43.3,33.5,30.13,SSE,159,4.0,8.0,68,0.00,,OVC095,0.00,VWS V14.01,2013-04-21 10:59:00,
2013-04-21 06:04:00,43.2,33.0,30.13,SSE,149,9.0,10.0,67,0.00,,OVC100,0.00,VWS V14.01,2013-04-21 11:04:00,
2013-04-21 06:09:00,42.9,33.1,30.13,SSE,158,5.0,7.0,68,0.00,,OVC100,0.00,VWS V14.01,2013-04-21 11:09:00,
2013-04-21 06:14:00,42.8,33.3,30.13,SE,141,10.0,10.0,69,0.00,,OVC100,0.00,VWS V14.01,2013-04-21 11:14:00,
2013-04-21 06:19:00,42.9,33.4,30.13,SE,131,7.0,10.0,69,0.00,,OVC100,0.00,VWS V14.01,2013-04-21 11:19:00,
2013-04-21 06:24:00,42.9,33.1,30.13,SE,146,5.0,9.0,68,0.00,,OVC100,0.00,VWS V14.01,2013-04-21 11:24:00,
2013-04-21 06:29:00,42.9,33.1,30.13,SE,144,7.0,9.0,68,0.00,,OVC100,0.00,VWS V14.01,2013-04-21 11:29:00,
2013-04-21 06:34:00,42.8,33.3,30.14,SE,135,6.0,7.0,69,0.00,,OVC100,0.00,VWS V14.01,2013-04-21 11:34:00,
2013-04-21 06:39:00,42.7,33.2,30.14,SSE,152,4.0,10.0,69,0.00,,OVC100,0.00,VWS V14.01,2013-04-21 11:39:00,
2013-04-21 06:44:00,42.8,33.3,30.14,SSE,149,8.0,8.0,69,0.00,,OVC100,0.00,VWS V14.01,2013-04-21 11:44:00,
2013-04-21 06:49:00,42.8,33.3,30.14,SSE,156,7.0,10.0,69,0.00,,OVC100,0.00,VWS V14.01,2013-04-21 11:49:00,
2013-04-21 06:54:00,42.8,33.3,30.15,SSE,147,5.0,8.0,69,0.00,,OVC100,0.00,VWS V14.01,2013-04-21 11:54:00,
2013-04-21 06:59:00,42.9,33.8,30.15,SSE,160,7.0,10.0,70,0.00,,OVC100,0.00,VWS V14.01,2013-04-21 11:59:00,
2013-04-21 07:04:00,43.1,34.0,30.14,SSE,148,5.0,8.0,70,0.00,,OVC110,0.00,VWS V14.01,2013-04-21 12:04:00,
2013-04-21 07:09:00,43.0,33.5,30.15,SE,136,6.0,6.0,69,0.00,,OVC110,0.00,VWS V14.01,2013-04-21 12:09:00,
2013-04-21 07:14:00,42.9,33.4,30.15,SSE,148,5.0,7.0,69,0.00,,OVC110,0.00,VWS V14.01,2013-04-21 12:14:00,
2013-04-21 07:19:00,42.9,33.4,30.15,SSE,158,5.0,10.0,69,0.00,,OVC110,0.00,VWS V14.01,2013-04-21 12:19:00,
2013-04-21 07:24:00,42.9,33.8,30.15,SE,142,7.0,7.0,70,0.00,,OVC110,0.00,VWS V14.01,2013-04-21 12:24:00,
2013-04-21 07:29:00,42.9,33.8,30.15,SE,138,6.0,10.0,70,0.00,,OVC110,0.00,VWS V14.01,2013-04-21 12:29:00,
2013-04-21 07:34:00,43.0,33.9,30.15,SE,137,8.0,8.0,70,0.00,,OVC110,0.00,VWS V14.01,2013-04-21 12:34:00,
2013-04-21 07:39:00,43.1,34.0,30.15,South,170,5.0,8.0,70,0.00,,OVC110,0.00,VWS V14.01,2013-04-21 12:39:00,
2013-04-21 07:44:00,43.3,34.2,30.15,SSE,151,4.0,7.0,70,0.00,,OVC110,0.00,VWS V14.01,2013-04-21 12:44:00,
2013-04-21 07:50:00,43.5,34.4,30.15,SE,132,6.0,9.0,70,0.00,,OVC110,0.00,VWS V14.01,2013-04-21 12:50:00,
2013-04-21 07:55:00,43.9,34.8,30.15,SSE,153,6.0,7.0,70,0.00,,OVC110,0.00,VWS V14.01,2013-04-21 12:55:00,
2013-04-21 08:00:00,44.2,34.7,30.15,SSE,165,5.0,8.0,69,0.00,,OVC110,0.00,VWS V14.01,2013-04-21 13:00:00,
2013-04-21 08:05:00,44.6,35.1,30.15,SSE,154,4.0,7.0,69,0.00,,OVC250,0.00,VWS V14.01,2013-04-21 13:05:00,
2013-04-21 08:10:00,45.1,35.5,30.15,SSE,156,4.0,8.0,69,0.00,,OVC250,0.00,VWS V14.01,2013-04-21 13:10:00,
2013-04-21 08:15:00,45.5,35.9,30.16,SSE,160,4.0,7.0,69,0.00,,OVC250,0.00,VWS V14.01,2013-04-21 13:15:00,
2013-04-21 08:20:00,46.2,36.2,30.16,South,170,9.0,11.0,68,0.00,,OVC250,0.00,VWS V14.01,2013-04-21 13:20:00,
2013-04-21 08:25:00,47.0,36.6,30.16,SSE,168,8.0,10.0,67,0.00,,OVC250,0.00,VWS V14.01,2013-04-21 13:25:00,
2013-04-21 08:30:00,47.6,36.8,30.16,SSE,158,9.0,10.0,66,0.00,,OVC250,0.00,VWS V14.01,2013-04-21 13:30:00,
2013-04-21 08:35:00,48.2,37.4,30.16,South,179,7.0,10.0,66,0.00,,OVC250,0.00,VWS V14.01,2013-04-21 13:35:00,
2013-04-21 08:40:00,48.8,37.6,30.15,South,177,9.0,11.0,65,0.00,,OVC250,0.00,VWS V14.01,2013-04-21 13:40:00,
2013-04-21 08:45:00,49.6,38.3,30.15,SSE,154,11.0,13.0,65,0.00,,OVC250,0.00,VWS V14.01,2013-04-21 13:45:00,
2013-04-21 08:50:00,50.2,38.5,30.15,SSE,159,9.0,14.0,64,0.00,,OVC250,0.00,VWS V14.01,2013-04-21 13:50:00,
2013-04-21 08:55:00,50.9,38.8,30.15,South,178,5.0,12.0,63,0.00,,OVC250,0.00,VWS V14.01,2013-04-21 13:55:00,
2013-04-21 09:00:00,51.4,39.7,30.15,South,181,10.0,10.0,64,0.00,,OVC250,0.00,VWS V14.01,2013-04-21 14:00:00,
2013-04-21 09:05:00,51.7,39.1,30.15,South,183,13.0,18.0,62,0.00,,OVC250,0.00,VWS V14.01,2013-04-21 14:05:00,
2013-04-21 09:10:00,51.8,39.2,30.15,SSW,193,13.0,17.0,62,0.00,,OVC250,0.00,VWS V14.01,2013-04-21 14:10:00,
2013-04-21 09:15:00,52.1,39.5,30.15,SSW,192,13.0,17.0,62,0.00,,OVC250,0.00,VWS V14.01,2013-04-21 14:15:00,
2013-04-21 09:20:00,52.4,39.4,30.15,South,175,16.0,18.0,61,0.00,,OVC250,0.00,VWS V14.01,2013-04-21 14:20:00,
2013-04-21 09:25:00,52.9,39.8,30.14,South,179,11.0,15.0,61,0.00,,OVC250,0.00,VWS V14.01,2013-04-21 14:25:00,
2013-04-21 09:30:00,53.3,40.2,30.14,South,190,12.0,16.0,61,0.00,,OVC250,0.00,VWS V14.01,2013-04-21 14:30:00,
2013-04-21 09:35:00,53.9,40.8,30.14,South,175,19.0,19.0,61,0.00,,OVC250,0.00,VWS V14.01,2013-04-21 14:35:00,
2013-04-21 09:40:00,54.0,40.4,30.14,South,189,13.0,21.0,60,0.00,,OVC250,0.00,VWS V14.01,2013-04-21 14:40:00,
2013-04-21 09:45:00,54.4,40.8,30.14,SSW,193,10.0,14.0,60,0.00,,OVC250,0.00,VWS V14.01,2013-04-21 14:45:00,
2013-04-21 09:50:00,54.9,41.3,30.14,South,170,8.0,18.0,60,0.00,,OVC250,0.00,VWS V14.01,2013-04-21 14:50:00,
2013-04-21 09:55:00,55.4,41.8,30.14,SSE,166,13.0,21.0,60,0.00,,OVC250,0.00,VWS V14.01,2013-04-21 14:55:00,
2013-04-21 10:00:00,56.0,41.9,30.13,SSW,193,10.0,17.0,59,0.00,,OVC250,0.00,VWS V14.01,2013-04-21 15:00:00,
2013-04-21 10:05:00,56.6,42.5,30.14,SSW,197,13.0,22.0,59,0.00,,OVC250,0.00,VWS V14.01,2013-04-21 15:05:00,
2013-04-21 10:10:00,57.2,42.6,30.14,SSW,199,17.0,20.0,58,0.00,,OVC250,0.00,VWS V14.01,2013-04-21 15:10:00,
2013-04-21 10:15:00,57.6,42.5,30.14,SW,216,14.0,16.0,57,0.00,,OVC250,0.00,VWS V14.01,2013-04-21 15:15:00,
2013-04-21 10:20:00,57.6,42.5,30.14,South,181,11.0,19.0,57,0.00,,OVC250,0.00,VWS V14.01,2013-04-21 15:20:00,
2013-04-21 10:25:00,57.5,42.8,30.13,SSW,212,11.0,17.0,58,0.00,,OVC250,0.00,VWS V14.01,2013-04-21 15:25:00,
2013-04-21 10:30:00,57.9,43.2,30.14,SSW,202,9.0,15.0,58,0.00,,OVC250,0.00,VWS V14.01,2013-04-21 15:30:00,
2013-04-21 10:35:00,59.1,43.4,30.13,South,176,17.0,22.0,56,0.00,,OVC250,0.00,VWS V14.01,2013-04-21 15:35:00,
2013-04-21 10:40:00,59.3,42.7,30.14,South,189,11.0,21.0,54,0.00,,OVC250,0.00,VWS V14.01,2013-04-21 15:40:00,
2013-04-21 10:45:00,59.9,43.2,30.13,South,179,15.0,21.0,54,0.00,,OVC250,0.00,VWS V14.01,2013-04-21 15:45:00,
2013-04-21 10:50:00,60.2,43.0,30.14,South,189,9.0,17.0,53,0.00,,OVC250,0.00,VWS V14.01,2013-04-21 15:50:00,
2013-04-21 10:55:00,60.7,42.5,30.13,South,189,15.0,19.0,51,0.00,,OVC250,0.00,VWS V14.01,2013-04-21 15:55:00,
2013-04-21 11:00:00,61.2,43.5,30.13,South,182,15.0,20.0,52,0.00,,OVC250,0.00,VWS V14.01,2013-04-21 16:00:00,
2013-04-21 11:05:00,61.6,42.8,30.13,South,191,16.0,17.0,50,0.00,,OVC250,0.00,VWS V14.01,2013-04-21 16:05:00,
2013-04-21 11:10:00,62.0,44.2,30.12,SSE,160,16.0,23.0,52,0.00,,OVC250,0.00,VWS V14.01,2013-04-21 16:10:00,
2013-04-21 11:15:00,62.1,42.7,30.12,SSW,199,17.0,28.0,49,0.00,,OVC250,0.00,VWS V14.01,2013-04-21 16:15:00,
2013-04-21 11:20:00,62.2,43.3,30.12,SSW,194,20.0,26.0,50,0.00,,OVC250,0.00,VWS V14.01,2013-04-21 16:20:00,
2013-04-21 11:25:00,62.1,42.2,30.12,SSW,201,17.0,24.0,48,0.00,,OVC250,0.00,VWS V14.01,2013-04-21 16:25:00,
2013-04-21 11:30:00,62.9,44.0,30.11,SSW,212,15.0,24.0,50,0.00,,OVC250,0.00,VWS V14.01,2013-04-21 16:30:00,
2013-04-21 11:35:00,63.1,43.7,30.11,SSW,197,14.0,25.0,49,0.00,,OVC250,0.00,VWS V14.01,2013-04-21 16:35:00,
2013-04-21 11:40:00,63.8,44.8,30.11,South,177,21.0,22.0,50,0.00,,OVC250,0.00,VWS V14.01,2013-04-21 16:40:00,
2013-04-21 11:45:00,64.3,43.7,30.11,South,174,21.0,25.0,47,0.00,,OVC250,0.00,VWS V14.01,2013-04-21 16:45:00,
2013-04-21 11:50:00,64.0,43.4,30.11,SSW,204,26.0,29.0,47,0.00,,OVC250,0.00,VWS V14.01,2013-04-21 16:50:00,
2013-04-21 11:55:00,64.4,43.8,30.10,South,187,31.0,31.0,47,0.00,,OVC250,0.00,VWS V14.01,2013-04-21 16:55:00,
2013-04-21 12:00:00,64.5,42.7,30.11,SSW,204,11.0,23.0,45,0.00,,BKN250,0.00,VWS V14.01,2013-04-21 17:00:00,
2013-04-21 12:06:00,64.5,42.7,30.10,SSW,211,17.0,25.0,45,0.00,,BKN250,0.00,VWS V14.01,2013-04-21 17:06:00,
2013-04-21 12:11:00,64.6,42.8,30.10,SSW,203,18.0,26.0,45,0.00,,BKN250,0.00,VWS V14.01,2013-04-21 17:11:00,
2013-04-21 12:16:00,64.9,43.7,30.10,South,184,20.0,20.0,46,0.00,,BKN250,0.00,VWS V14.01,2013-04-21 17:16:00,
2013-04-21 12:21:00,65.0,43.2,30.10,South,189,18.0,22.0,45,0.00,,BKN250,0.00,VWS V14.01,2013-04-21 17:21:00,
2013-04-21 12:26:00,65.2,43.3,30.10,SSW,206,13.0,23.0,45,0.00,,BKN250,0.00,VWS V14.01,2013-04-21 17:26:00,
2013-04-21 12:31:00,65.1,43.3,30.10,SSW,193,12.0,18.0,45,0.00,,BKN250,0.00,VWS V14.01,2013-04-21 17:31:00,
2013-04-21 12:36:00,65.4,43.5,30.09,SW,214,24.0,24.0,45,0.00,,BKN250,0.00,VWS V14.01,2013-04-21 17:36:00,
2013-04-21 12:41:00,65.5,42.4,30.09,SSW,195,20.0,26.0,43,0.00,,BKN250,0.00,VWS V14.01,2013-04-21 17:41:00,
2013-04-21 12:46:00,65.4,42.9,30.09,SSE,167,20.0,23.0,44,0.00,,BKN250,0.00,VWS V14.01,2013-04-21 17:46:00,
2013-04-21 12:51:00,65.2,41.5,30.09,SSW,201,19.0,22.0,42,0.00,,BKN250,0.00,VWS V14.01,2013-04-21 17:51:00,
2013-04-21 12:56:00,65.7,42.6,30.08,SSW,208,19.0,28.0,43,0.00,,BKN250,0.00,VWS V14.01,2013-04-21 17:56:00,
2013-04-21 13:01:00,65.7,42.6,30.08,SSW,196,16.0,31.0,43,0.00,,BKN250,0.00,VWS V14.01,2013-04-21 18:01:00,
2013-04-21 13:06:00,65.5,42.4,30.08,SSW,204,15.0,23.0,43,0.00,,BKN250,0.00,VWS V14.01,2013-04-21 18:06:00,
2013-04-21 13:11:00,65.3,42.8,30.08,SSE,168,18.0,23.0,44,0.00,,BKN250,0.00,VWS V14.01,2013-04-21 18:11:00,
2013-04-21 13:16:00,64.7,42.3,30.08,SSW,199,10.0,15.0,44,0.00,,BKN250,0.00,VWS V14.01,2013-04-21 18:16:00,
2013-04-21 13:21:00,65.5,43.0,30.07,SSW,197,13.0,29.0,44,0.00,,BKN250,0.00,VWS V14.01,2013-04-21 18:21:00,
2013-04-21 13:26:00,65.5,41.2,30.07,SSW,206,17.0,22.0,41,0.00,,BKN250,0.00,VWS V14.01,2013-04-21 18:26:00,
2013-04-21 13:31:00,65.3,42.2,30.07,South,175,14.0,22.0,43,0.00,,BKN250,0.00,VWS V14.01,2013-04-21 18:31:00,
2013-04-21 13:36:00,66.1,41.7,30.07,SSW,195,19.0,21.0,41,0.00,,BKN250,0.00,VWS V14.01,2013-04-21 18:36:00,
2013-04-21 13:41:00,65.6,41.9,30.06,South,180,11.0,21.0,42,0.00,,BKN250,0.00,VWS V14.01,2013-04-21 18:41:00,
2013-04-21 13:46:00,65.9,40.9,30.06,WSW,237,19.0,24.0,40,0.00,,BKN250,0.00,VWS V14.01,2013-04-21 18:46:00,
2013-04-21 13:51:00,66.0,41.7,30.07,SSW,192,10.0,22.0,41,0.00,,BKN250,0.00,VWS V14.01,2013-04-21 18:51:00,
2013-04-21 13:56:00,65.9,43.4,30.06,SSW,199,17.0,21.0,44,0.00,,BKN250,0.00,VWS V14.01,2013-04-21 18:56:00,
2013-04-21 14:01:00,65.6,42.5,30.06,SSW,212,12.0,17.0,43,0.00,,BKN250,0.00,VWS V14.01,2013-04-21 19:01:00,
2013-04-21 14:06:00,65.6,43.1,30.06,SSW,198,15.0,16.0,44,0.00,,BKN250,0.00,VWS V14.01,2013-04-21 19:06:00,
2013-04-21 14:11:00,66.2,44.2,30.06,SSW,206,12.0,20.0,45,0.00,,BKN250,0.00,VWS V14.01,2013-04-21 19:11:00,
2013-04-21 14:16:00,66.0,44.1,30.06,SSW,206,15.0,21.0,45,0.00,,BKN250,0.00,VWS V14.01,2013-04-21 19:16:00,
2013-04-21 14:21:00,65.3,42.2,30.06,SSW,199,17.0,25.0,43,0.00,,BKN250,0.00,VWS V14.01,2013-04-21 19:21:00,
2013-04-21 14:26:00,66.1,43.6,30.05,South,187,14.0,25.0,44,0.00,,BKN250,0.00,VWS V14.01,2013-04-21 19:26:00,
2013-04-21 14:31:00,66.3,43.8,30.05,SSW,195,10.0,23.0,44,0.00,,BKN250,0.00,VWS V14.01,2013-04-21 19:31:00,
2013-04-21 14:36:00,66.6,44.6,30.05,South,176,24.0,24.0,45,0.00,,BKN250,0.00,VWS V14.01,2013-04-21 19:36:00,
2013-04-21 14:41:00,65.9,42.8,30.05,SW,234,15.0,19.0,43,0.00,,BKN250,0.00,VWS V14.01,2013-04-21 19:41:00,
2013-04-21 14:47:00,66.2,43.1,30.05,SSW,204,12.0,24.0,43,0.00,,BKN250,0.00,VWS V14.01,2013-04-21 19:47:00,
2013-04-21 14:52:00,66.3,42.5,30.05,SSW,204,15.0,22.0,42,0.00,,BKN250,0.00,VWS V14.01,2013-04-21 19:52:00,
2013-04-21 14:57:00,65.9,42.2,30.04,SSE,168,19.0,24.0,42,0.00,,BKN250,0.00,VWS V14.01,2013-04-21 19:57:00,
2013-04-21 15:02:00,65.6,43.1,30.04,South,177,14.0,24.0,44,0.00,,OVC250,0.00,VWS V14.01,2013-04-21 20:02:00,
2013-04-21 15:07:00,65.3,44.0,30.05,SSW,208,17.0,25.0,46,0.00,,OVC250,0.00,VWS V14.01,2013-04-21 20:07:00,
2013-04-21 15:21:00,65.7,43.8,30.04,SW,217,12.0,16.0,45,0.00,,OVC250,0.00,VWS V14.01,2013-04-21 20:21:00,
2013-04-21 15:26:00,65.3,43.4,30.04,South,183,14.0,21.0,45,0.00,,OVC250,0.00,VWS V14.01,2013-04-21 20:26:00,
2013-04-21 15:31:00,65.3,44.6,30.03,SSW,199,15.0,20.0,47,0.00,,OVC250,0.00,VWS V14.01,2013-04-21 20:31:00,
2013-04-21 15:36:00,65.9,45.1,30.03,SSW,196,11.0,22.0,47,0.00,,OVC250,0.00,VWS V14.01,2013-04-21 20:36:00,
2013-04-21 15:41:00,65.7,43.8,30.03,SSW,213,19.0,23.0,45,0.00,,OVC250,0.00,VWS V14.01,2013-04-21 20:41:00,
2013-04-21 15:46:00,65.5,43.6,30.03,South,178,19.0,23.0,45,0.00,,OVC250,0.00,VWS V14.01,2013-04-21 20:46:00,
2013-04-21 15:51:00,65.3,43.4,30.02,South,188,15.0,20.0,45,0.00,,OVC250,0.00,VWS V14.01,2013-04-21 20:51:00,
2013-04-21 15:56:00,65.7,44.4,30.02,South,178,14.0,21.0,46,0.00,,OVC250,0.00,VWS V14.01,2013-04-21 20:56:00,
2013-04-21 16:01:00,65.2,44.5,30.02,South,188,14.0,19.0,47,0.00,,OVC250,0.00,VWS V14.01,2013-04-21 21:01:00,
2013-04-21 16:06:00,65.2,43.9,30.02,South,176,19.0,19.0,46,0.00,,OVC250,0.00,VWS V14.01,2013-04-21 21:06:00,
2013-04-21 16:11:00,64.9,44.2,30.02,SSE,160,21.0,25.0,47,0.00,,OVC250,0.00,VWS V14.01,2013-04-21 21:11:00,
2013-04-21 16:17:00,64.9,44.8,30.02,SSW,197,7.0,21.0,48,0.00,,OVC250,0.00,VWS V14.01,2013-04-21 21:17:00,
2013-04-21 16:22:00,64.3,44.8,30.02,SSW,193,17.0,17.0,49,0.00,,OVC250,0.00,VWS V14.01,2013-04-21 21:22:00,
2013-04-21 16:27:00,64.1,44.0,30.02,SE,145,15.0,18.0,48,0.00,,OVC250,0.00,VWS V14.01,2013-04-21 21:27:00,
2013-04-21 16:32:00,64.1,44.6,30.02,South,187,15.0,18.0,49,0.00,,OVC250,0.00,VWS V14.01,2013-04-21 21:32:00,
2013-04-21 16:37:00,63.9,44.4,30.02,South,190,15.0,21.0,49,0.00,,OVC250,0.00,VWS V14.01,2013-04-21 21:37:00,
2013-04-21 16:42:00,64.0,44.5,30.02,South,177,11.0,17.0,49,0.00,,OVC250,0.00,VWS V14.01,2013-04-21 21:42:00,
2013-04-21 16:47:00,64.1,44.6,30.01,South,190,14.0,20.0,49,0.00,,OVC250,0.00,VWS V14.01,2013-04-21 21:47:00,
2013-04-21 16:52:00,64.0,44.5,30.02,South,190,13.0,19.0,49,0.00,,OVC250,0.00,VWS V14.01,2013-04-21 21:52:00,
2013-04-21 16:57:00,64.0,45.0,30.02,SSW,203,9.0,13.0,50,0.00,,OVC250,0.00,VWS V14.01,2013-04-21 21:57:00,
2013-04-21 17:02:00,63.8,45.3,30.02,SSW,204,9.0,18.0,51,0.00,,BKN250,0.00,VWS V14.01,2013-04-21 22:02:00,
2013-04-21 17:07:00,62.4,47.5,30.02,SSW,209,7.0,9.0,58,0.00,,BKN250,0.00,VWS V14.01,2013-04-21 22:07:00,
2013-04-21 17:12:00,62.2,46.3,30.02,SSW,212,10.0,14.0,56,0.00,,BKN250,0.00,VWS V14.01,2013-04-21 22:12:00,
2013-04-21 17:17:00,62.5,45.7,30.02,South,183,11.0,23.0,54,0.00,,BKN250,0.00,VWS V14.01,2013-04-21 22:17:00,
2013-04-21 17:22:00,62.2,47.7,30.02,SSW,197,7.0,12.0,59,0.00,,BKN250,0.01,VWS V14.01,2013-04-21 22:22:00,
2013-04-21 17:27:00,61.2,48.1,30.02,South,180,10.0,10.0,62,0.00,,BKN250,0.01,VWS V14.01,2013-04-21 22:27:00,
2013-04-21 17:32:00,60.7,48.9,30.02,SSE,153,5.0,8.0,65,0.00,,BKN250,0.01,VWS V14.01,2013-04-21 22:32:00,
2013-04-21 17:37:00,60.7,50.1,30.01,South,183,5.0,6.0,68,0.00,,BKN250,0.01,VWS V14.01,2013-04-21 22:37:00,
2013-04-21 17:42:00,61.4,49.1,30.02,South,169,10.0,12.0,64,0.00,,BKN250,0.01,VWS V14.01,2013-04-21 22:42:00,
2013-04-21 17:47:00,62.3,47.3,30.01,South,183,11.0,16.0,58,0.00,,BKN250,0.01,VWS V14.01,2013-04-21 22:47:00,
2013-04-21 17:52:00,62.6,47.6,30.01,SSW,202,10.0,12.0,58,0.00,,BKN250,0.01,VWS V14.01,2013-04-21 22:52:00,
2013-04-21 17:57:00,62.9,46.5,30.01,SSW,201,7.0,21.0,55,0.00,,BKN250,0.01,VWS V14.01,2013-04-21 22:57:00,
2013-04-21 18:03:00,62.9,47.0,30.01,South,187,9.0,15.0,56,0.00,,OVC250,0.01,VWS V14.01,2013-04-21 23:03:00,
2013-04-21 18:08:00,63.1,46.2,30.01,SSW,206,10.0,17.0,54,0.00,,OVC250,0.01,VWS V14.01,2013-04-21 23:08:00,
2013-04-21 18:13:00,63.2,46.3,30.01,SSW,200,14.0,18.0,54,0.00,,OVC250,0.01,VWS V14.01,2013-04-21 23:13:00,
2013-04-21 18:18:00,63.6,46.7,30.01,SSW,212,10.0,24.0,54,0.00,,OVC250,0.01,VWS V14.01,2013-04-21 23:18:00,
2013-04-21 18:23:00,63.7,46.8,30.01,South,177,16.0,17.0,54,0.00,,OVC250,0.01,VWS V14.01,2013-04-21 23:23:00,
2013-04-21 18:28:00,63.7,46.8,30.01,South,185,20.0,20.0,54,0.00,,OVC250,0.01,VWS V14.01,2013-04-21 23:28:00,
2013-04-21 18:33:00,64.1,47.1,30.01,SSE,152,13.0,16.0,54,0.00,,OVC250,0.01,VWS V14.01,2013-04-21 23:33:00,
2013-04-21 18:38:00,63.8,46.4,30.01,SSE,150,19.0,19.0,53,0.00,,OVC250,0.01,VWS V14.01,2013-04-21 23:38:00,
2013-04-21 18:43:00,63.3,46.4,30.01,SSE,157,21.0,21.0,54,0.00,,OVC250,0.01,VWS V14.01,2013-04-21 23:43:00,
2013-04-21 18:48:00,63.6,46.2,30.01,SSW,196,17.0,20.0,53,0.00,,OVC250,0.01,VWS V14.01,2013-04-21 23:48:00,
2013-04-21 18:53:00,63.5,45.6,30.01,SSW,199,12.0,19.0,52,0.00,,OVC250,0.01,VWS V14.01,2013-04-21 23:53:00,
2013-04-21 18:58:00,63.3,46.4,30.01,SSE,166,9.0,17.0,54,0.00,,OVC250,0.01,VWS V14.01,2013-04-21 23:58:00,
2013-04-21 19:03:00,63.4,46.0,30.01,South,187,14.0,21.0,53,0.00,,-RA,0.01,VWS V14.01,2013-04-22 00:03:00,
2013-04-21 19:08:00,63.2,45.8,30.01,SSE,163,9.0,19.0,53,0.00,,-RA,0.01,VWS V14.01,2013-04-22 00:08:00,
2013-04-21 19:13:00,62.9,45.5,30.01,South,182,19.0,21.0,53,0.00,,-RA,0.01,VWS V14.01,2013-04-22 00:13:00,
2013-04-21 19:18:00,62.7,45.8,30.01,South,189,11.0,16.0,54,0.00,,-RA,0.01,VWS V14.01,2013-04-22 00:18:00,
2013-04-21 19:23:00,62.6,45.7,30.01,South,185,12.0,18.0,54,0.00,,-RA,0.01,VWS V14.01,2013-04-22 00:23:00,
2013-04-21 19:28:00,62.5,45.7,30.01,South,170,9.0,17.0,54,0.00,,-RA,0.01,VWS V14.01,2013-04-22 00:28:00,
2013-04-21 19:33:00,62.1,45.8,30.00,SSW,194,18.0,22.0,55,0.00,,OVC085,0.01,VWS V14.01,2013-04-22 00:33:00,
2013-04-21 19:38:00,62.3,45.5,30.00,South,187,17.0,18.0,54,0.00,,OVC085,0.01,VWS V14.01,2013-04-22 00:38:00,
2013-04-21 19:43:00,62.0,45.7,30.00,SSE,168,13.0,17.0,55,0.00,,OVC085,0.01,VWS V14.01,2013-04-22 00:43:00,
2013-04-21 19:48:00,61.6,45.3,30.01,SSW,200,16.0,16.0,55,0.00,,OVC085,0.01,VWS V14.01,2013-04-22 00:48:00,
2013-04-21 19:53:00,61.4,45.6,30.01,South,174,9.0,14.0,56,0.00,,OVC085,0.01,VWS V14.01,2013-04-22 00:53:00,
2013-04-21 19:58:00,61.2,45.4,30.01,SSE,159,14.0,16.0,56,0.00,,OVC085,0.01,VWS V14.01,2013-04-22 00:58:00,
2013-04-21 20:03:00,60.9,45.6,30.01,South,186,18.0,18.0,57,0.00,,OVC070,0.01,VWS V14.01,2013-04-22 01:03:00,
2013-04-21 20:08:00,60.7,45.4,30.01,South,183,9.0,13.0,57,0.00,,OVC070,0.01,VWS V14.01,2013-04-22 01:08:00,
2013-04-21 20:13:00,60.3,45.5,30.01,South,172,16.0,16.0,58,0.00,,OVC070,0.01,VWS V14.01,2013-04-22 01:13:00,
2013-04-21 20:18:00,60.0,45.7,30.01,South,185,10.0,12.0,59,0.00,,OVC070,0.01,VWS V14.01,2013-04-22 01:18:00,
2013-04-21 20:24:00,59.8,45.5,30.01,SSE,167,10.0,13.0,59,0.00,,OVC070,0.01,VWS V14.01,2013-04-22 01:24:00,
2013-04-21 20:29:00,59.5,45.6,30.02,SSE,167,13.0,16.0,60,0.00,,OVC070,0.01,VWS V14.01,2013-04-22 01:29:00,
2013-04-21 20:34:00,59.3,45.4,30.02,South,181,10.0,13.0,60,0.00,,OVC070,0.01,VWS V14.01,2013-04-22 01:34:00,
2013-04-21 20:39:00,59.1,45.2,30.02,South,184,8.0,14.0,60,0.00,,OVC070,0.01,VWS V14.01,2013-04-22 01:39:00,
2013-04-21 20:44:00,59.1,45.2,30.02,SSE,156,12.0,15.0,60,0.00,,OVC055,0.01,VWS V14.01,2013-04-22 01:44:00,
2013-04-21 20:49:00,59.0,44.7,30.02,South,187,10.0,16.0,59,0.00,,OVC055,0.01,VWS V14.01,2013-04-22 01:49:00,
2013-04-21 20:54:00,59.1,44.8,30.02,South,177,11.0,15.0,59,0.00,,OVC055,0.01,VWS V14.01,2013-04-22 01:54:00,
2013-04-21 20:59:00,59.3,44.5,30.02,South,171,12.0,14.0,58,0.00,,OVC055,0.01,VWS V14.01,2013-04-22 01:59:00,
2013-04-21 21:04:00,59.4,44.6,30.03,South,174,10.0,14.0,58,0.00,,,0.01,VWS V14.01,2013-04-22 02:04:00,
2013-04-21 21:09:00,59.1,44.3,30.03,SSE,160,12.0,13.0,58,0.00,,,0.01,VWS V14.01,2013-04-22 02:09:00,
2013-04-21 21:14:00,59.1,44.3,30.03,South,184,7.0,16.0,58,0.00,,,0.01,VWS V14.01,2013-04-22 02:14:00,
2013-04-21 21:19:00,59.2,44.5,30.03,SSW,193,13.0,14.0,58,0.00,,,0.01,VWS V14.01,2013-04-22 02:19:00,
2013-04-21 21:24:00,59.1,44.3,30.04,South,173,9.0,14.0,58,0.00,,,0.01,VWS V14.01,2013-04-22 02:24:00,
2013-04-21 21:29:00,59.0,44.3,30.04,South,185,14.0,17.0,58,0.00,,,0.01,VWS V14.01,2013-04-22 02:29:00,
2013-04-21 21:34:00,58.9,44.6,30.04,South,189,14.0,15.0,59,0.00,,,0.01,VWS V14.01,2013-04-22 02:34:00,
2013-04-21 21:39:00,58.9,44.2,30.04,SSE,156,14.0,18.0,58,0.00,,,0.01,VWS V14.01,2013-04-22 02:39:00,
2013-04-21 21:44:00,59.0,44.3,30.04,South,174,15.0,18.0,58,0.00,,RA,0.01,VWS V14.01,2013-04-22 02:44:00,
2013-04-21 21:49:00,58.9,44.2,30.04,South,178,10.0,19.0,58,0.00,,RA,0.01,VWS V14.01,2013-04-22 02:49:00,
2013-04-21 21:54:00,58.7,44.0,30.05,South,180,9.0,15.0,58,0.00,,RA,0.01,VWS V14.01,2013-04-22 02:54:00,
2013-04-21 21:59:00,58.7,44.0,30.05,SSW,196,8.0,18.0,58,0.00,,RA,0.01,VWS V14.01,2013-04-22 02:59:00,
2013-04-21 22:04:00,58.6,44.3,30.06,South,176,10.0,17.0,59,0.00,,-RA,0.01,VWS V14.01,2013-04-22 03:04:00,
2013-04-21 22:09:00,58.5,44.2,30.06,South,187,10.0,12.0,59,0.00,,-RA,0.01,VWS V14.01,2013-04-22 03:09:00,
2013-04-21 22:14:00,58.5,44.2,30.07,SSW,199,8.0,11.0,59,0.00,,-RA,0.01,VWS V14.01,2013-04-22 03:14:00,
2013-04-21 22:19:00,58.4,44.1,30.10,WNW,288,8.0,11.0,59,0.00,,-RA,0.01,VWS V14.01,2013-04-22 03:19:00,
2013-04-21 22:24:00,57.4,46.9,30.10,West,268,6.0,8.0,68,0.00,,-RA,0.01,VWS V14.01,2013-04-22 03:24:00,
2013-04-21 22:29:00,56.2,46.9,30.10,West,277,4.0,7.0,71,0.00,,-RA,0.01,VWS V14.01,2013-04-22 03:29:00,
2013-04-21 22:34:00,55.8,46.5,30.11,WNW,303,4.0,16.0,71,0.00,,-RA,0.02,VWS V14.01,2013-04-22 03:34:00,
2013-04-21 22:39:00,54.8,48.4,30.11,NW,326,5.0,8.0,79,0.00,,-RA,0.03,VWS V14.01,2013-04-22 03:39:00,
2013-04-21 22:44:00,53.4,48.4,30.11,WNW,289,4.0,9.0,83,0.00,,-RA,0.04,VWS V14.01,2013-04-22 03:44:00,
2013-04-21 22:49:00,52.6,48.5,30.11,WNW,284,5.0,6.0,86,0.00,,-RA,0.04,VWS V14.01,2013-04-22 03:49:00,
2013-04-21 22:54:00,52.3,48.5,30.11,NW,314,3.0,7.0,87,0.00,,-RA,0.05,VWS V14.01,2013-04-22 03:54:00,
2013-04-21 22:59:00,52.2,48.8,30.10,NW,322,2.0,6.0,88,0.00,,-RA,0.05,VWS V14.01,2013-04-22 03:59:00,
2013-04-21 23:01:00,52.2,48.8,30.10,NNW,339,5.0,5.0,88,0.00,,-RA,0.06,VWS V14.01,2013-04-22 04:01:00,
2013-04-21 23:06:00,52.1,48.7,30.11,NW,320,4.0,5.0,88,0.00,,OVC250,0.06,VWS V14.01,2013-04-22 04:06:00,
2013-04-21 23:11:00,52.1,49.0,30.11,NW,308,6.0,8.0,89,0.00,,OVC250,0.06,VWS V14.01,2013-04-22 04:11:00,
2013-04-21 23:16:00,52.1,49.0,30.10,NNW,341,3.0,6.0,89,0.00,,OVC250,0.06,VWS V14.01,2013-04-22 04:16:00,
2013-04-21 23:21:00,52.1,49.3,30.10,West,274,4.0,5.0,90,0.00,,OVC250,0.06,VWS V14.01,2013-04-22 04:21:00,
2013-04-21 23:26:00,52.1,49.3,30.10,WNW,283,5.0,5.0,90,0.00,,OVC250,0.06,VWS V14.01,2013-04-22 04:26:00,
2013-04-21 23:31:00,52.2,49.4,30.11,NW,304,4.0,5.0,90,0.00,,OVC250,0.07,VWS V14.01,2013-04-22 04:31:00,
2013-04-21 23:36:00,52.2,49.4,30.12,WNW,291,6.0,8.0,90,0.00,,OVC250,0.08,VWS V14.01,2013-04-22 04:36:00,
2013-04-21 23:41:00,52.1,49.6,30.12,WNW,289,3.0,6.0,91,0.00,,OVC250,0.09,VWS V14.01,2013-04-22 04:41:00,
2013-04-21 23:46:00,51.9,49.4,30.12,WNW,291,1.0,5.0,91,0.00,,OVC250,0.10,VWS V14.01,2013-04-22 04:46:00,
2013-04-21 23:51:00,51.9,49.4,30.12,WNW,297,4.0,4.0,91,0.00,,OVC250,0.11,VWS V14.01,2013-04-22 04:51:00,
2013-04-21 23:56:00,51.9,49.4,30.12,NW,318,3.0,3.0,91,0.00,,OVC250,0.13,VWS V14.01,2013-04-22 04:56:00,